CW8398 Weather Reports


Display with metric or nautical units.
time (UTC)temp
F
wind
direction
speed
MPH
gust
MPH
rain 1hr
in
rain 24hr
in
rain mn
in
humidity
%
barometer
mb
20260504043802 42 214 0.0 0.0 0.02 0.02 0.02 88 1003.3
20260504043302 42 214 0.0 0.0 0.02 0.02 0.02 87 1003.3
20260504042803 42 214 0.0 0.0 0.02 0.02 0.02 87 1003.3
20260504042304 42 214 0.0 0.0 0.01 0.01 0.01 86 1003.3
20260504041802 42 214 0.0 0.0 0.01 0.01 0.01 85 1003.5
20260504041302 42 214 0.0 0.0 0.00 0.00 0.00 84 1003.5
20260504040803 42 214 0.0 0.0 0.00 0.00 0.00 82 1003.5
20260504040302 42 214 0.0 0.0 0.00 0.00 0.00 82 1003.5
20260504035802 42 214 0.0 0.0 0.00 0.00 0.00 81 1003.5
20260504035304 42 214 0.0 0.0 0.00 0.00 0.00 81 1003.5
20260504034802 42 214 0.0 0.0 0.00 0.00 0.00 81 1003.6
20260504034303 42 214 0.0 0.0 0.00 0.00 0.00 81 1003.6
20260504033802 42 214 0.0 0.0 0.00 0.00 0.00 81 1003.6
20260504033302 42 214 0.0 0.0 0.00 0.00 0.00 81 1003.7
20260504032803 42 214 0.0 0.0 0.00 0.00 0.00 80 1003.7
20260504032304 42 214 0.0 0.0 0.00 0.00 0.00 80 1003.7
20260504031803 42 214 0.0 0.0 0.00 0.00 0.00 80 1003.7
20260504031303 42 214 0.0 0.0 0.00 0.00 0.00 80 1004.3
20260504030303 42 214 0.0 0.0 0.00 0.00 0.00 81 1004.3
20260504025802 42 214 0.0 1.0 0.00 0.00 0.00 81 1004.3
20260504025304 41 214 1.0 2.0 0.00 0.00 0.00 81 1004.3
20260504024802 41 214 0.0 1.0 0.00 0.00 0.00 81 1004.3
20260504024302 41 214 0.0 0.0 0.00 0.00 0.00 81 1004.6
20260504023802 41 214 0.0 1.0 0.00 0.00 0.00 81 1004.6
20260504023302 42 214 0.0 0.0 0.00 0.00 0.00 81 1004.6
20260504022304 42 214 1.0 2.0 0.00 0.00 0.00 81 1004.6
20260504021803 42 214 0.0 1.0 0.00 0.00 0.00 80 1004.6
20260504021303 42 214 0.0 1.0 0.00 0.00 0.00 80 1004.6
20260504020803 42 214 0.0 0.0 0.00 0.00 0.00 80 1004.6
20260504020303 42 214 0.0 1.0 0.00 0.00 0.00 80 1004.6
20260504015803 42 214 0.0 1.0 0.00 0.00 0.00 80 1004.6
20260504015304 42 214 0.0 1.0 0.00 0.00 0.00 80 1004.6
20260504014802 42 214 0.0 2.0 0.00 0.00 0.00 80 1005.2
20260504014303 42 214 0.0 1.0 0.00 0.00 0.00 80 1005.2
20260504013803 42 214 0.0 2.0 0.00 0.00 0.00 80 1005.2
20260504013303 42 214 0.0 2.0 0.00 0.00 0.00 80 1005.2
20260504012802 42 214 0.0 0.0 0.00 0.00 0.00 79 1005.2
20260504012304 42 214 0.0 0.0 0.00 0.00 0.00 80 1005.2
20260504011803 42 214 0.0 0.0 0.00 0.00 0.00 79 1005.2
20260504011302 42 214 0.0 1.0 0.00 0.00 0.00 79 1005.2
20260504010803 42 214 0.0 1.0 0.00 0.00 0.00 79 1005.3
20260504005803 42 214 0.0 1.0 0.00 0.00 0.00 80 1005.3
20260504005304 42 214 0.0 1.0 0.00 0.00 0.00 80 1005.3
20260504004302 42 214 0.0 1.0 0.00 0.00 0.00 80 1005.5
20260504003802 42 214 0.0 1.0 0.00 0.00 0.00 80 1005.5
20260504003303 42 214 1.0 2.0 0.00 0.00 0.00 80 1005.6
20260504002803 42 214 0.0 2.0 0.00 0.00 0.00 80 1005.6
20260504002304 42 214 0.0 0.0 0.00 0.00 0.00 79 1005.6
20260504001803 42 214 0.0 2.0 0.00 0.00 0.00 79 1005.7
20260504001302 42 214 0.0 1.0 0.00 0.00 0.00 79 1005.9
20260503235803 43 222 1.0 2.0 0.00 0.00 0.00 79 1005.9
20260503235304 42 222 0.0 0.0 0.00 0.00 0.00 79 1005.9
20260503234803 42 222 0.0 0.0 0.00 0.00 0.00 79 1005.9
20260503234303 43 222 0.0 0.0 0.00 0.00 0.00 79 1005.9
20260503233803 43 222 0.0 0.0 0.00 0.00 0.00 78 1006.1
20260503232802 43 222 0.0 0.0 0.00 0.00 0.00 79 1006.1
20260503232305 43 222 0.0 0.0 0.00 0.00 0.00 79 1006.1
20260503231802 43 222 0.0 0.0 0.00 0.00 0.00 79 1006.4
20260503231303 43 222 0.0 0.0 0.00 0.00 0.00 78 1006.4
20260503230802 43 222 0.0 0.0 0.00 0.00 0.00 78 1006.4
20260503230303 43 222 0.0 0.0 0.00 0.00 0.00 78 1006.4
20260503225803 43 222 0.0 0.0 0.00 0.00 0.00 78 1006.4
20260503225304 43 222 0.0 0.0 0.00 0.00 0.00 78 1006.4
20260503224802 43 222 0.0 0.0 0.00 0.00 0.00 79 1006.4
20260503224303 43 222 0.0 0.0 0.00 0.00 0.00 80 1006.4
20260503223803 43 222 0.0 0.0 0.00 0.00 0.00 79 1006.7
20260503222802 43 222 0.0 1.0 0.00 0.00 0.00 80 1006.7
20260503222304 43 222 0.0 1.0 0.00 0.00 0.00 80 1006.7
20260503221803 43 222 1.0 2.0 0.00 0.00 0.00 80 1006.7
20260503220303 43 302 0.0 1.0 0.00 0.00 0.00 80 1006.7
20260503215803 43 302 0.0 1.0 0.00 0.00 0.00 80 1006.7
20260503215304 43 302 0.0 1.0 0.00 0.00 0.00 80 1006.7
20260503214302 43 302 1.0 2.0 0.00 0.00 0.00 80 1006.7
20260503213803 43 327 0.0 2.0 0.00 0.00 0.00 80 1006.9
20260503213303 43 349 1.0 2.0 0.00 0.00 0.00 80 1006.9
20260503212802 43 298 1.0 2.0 0.00 0.00 0.00 80 1006.9
20260503212304 43 339 1.0 2.0 0.00 0.00 0.00 80 1006.9
20260503211802 43 40 0.0 1.0 0.00 0.00 0.00 79 1006.9
20260503211303 43 12 0.0 1.0 0.00 0.00 0.00 79 1006.9
20260503210303 43 34 0.0 1.0 0.00 0.00 0.00 79 1006.9
20260503205803 43 34 0.0 0.0 0.00 0.00 0.00 79 1007.1
20260503205304 43 34 0.0 2.0 0.00 0.00 0.00 79 1007.1
20260503204802 43 34 1.0 2.0 0.00 0.00 0.00 79 1007.1
20260503204303 43 34 0.0 1.0 0.00 0.00 0.00 79 1007.1
20260503203802 43 34 0.0 1.0 0.00 0.00 0.00 79 1007.1
20260503203303 43 34 0.0 0.0 0.00 0.00 0.00 79 1007.1
20260503202304 43 34 0.0 1.0 0.00 0.00 0.00 79 1007.1
20260503201803 43 34 0.0 1.0 0.00 0.00 0.00 79 1007.1
20260503200803 43 34 0.0 0.0 0.00 0.00 0.00 79 1007.1
20260503200303 43 34 0.0 0.0 0.00 0.00 0.00 78 1007.2
20260503195304 43 34 0.0 0.0 0.00 0.00 0.00 79 1007.2
20260503194803 43 34 0.0 0.0 0.00 0.00 0.00 79 1007.3
20260503194302 43 34 0.0 1.0 0.00 0.00 0.00 79 1007.3
20260503193803 43 34 0.0 0.0 0.00 0.00 0.00 79 1007.3
20260503192803 43 34 0.0 0.0 0.00 0.00 0.00 78 1007.3
20260503192305 43 34 0.0 0.0 0.00 0.00 0.00 79 1007.3
20260503191803 43 34 0.0 1.0 0.00 0.00 0.00 79 1007.3
20260503190803 43 25 0.0 1.0 0.00 0.00 0.00 78 1007.3
20260503190303 43 25 0.0 1.0 0.00 0.00 0.00 78 1007.3
20260503185803 43 25 0.0 2.0 0.00 0.00 0.00 78 1007.3
20260503185304 43 12 1.0 2.0 0.00 0.00 0.00 77 1007.3
20260503184803 43 5 0.0 2.0 0.00 0.00 0.00 77 1007.2
20260503184303 43 344 1.0 2.0 0.00 0.00 0.00 77 1007.2
20260503183802 43 5 1.0 3.0 0.00 0.00 0.00 77 1007.2
20260503183303 44 24 1.0 3.0 0.00 0.00 0.00 77 1007.2
20260503182803 44 13 1.0 3.0 0.00 0.00 0.00 77 1007.2
20260503182305 44 53 2.0 3.0 0.00 0.00 0.00 77 1007.2
20260503181803 44 38 2.0 3.0 0.00 0.00 0.00 77 1007.2
20260503181303 44 6 1.0 3.0 0.00 0.00 0.00 78 1007.2
20260503180803 44 8 2.0 3.0 0.00 0.00 0.00 78 1007.2
20260503180303 44 21 1.0 3.0 0.00 0.00 0.00 78 1007.2
20260503175802 44 36 2.0 5.0 0.00 0.00 0.00 78 1007.2
20260503175304 44 15 1.0 3.0 0.00 0.00 0.00 78 1007.2
20260503174803 44 16 2.0 5.0 0.00 0.00 0.00 78 1007.3
20260503174303 44 16 1.0 3.0 0.00 0.00 0.00 77 1007.3
20260503173803 44 23 1.0 3.0 0.00 0.00 0.00 77 1007.3
20260503173303 44 25 2.0 7.0 0.00 0.00 0.00 77 1007.3
20260503172803 44 23 2.0 5.0 0.00 0.00 0.00 77 1007.3
20260503172305 44 10 2.0 3.0 0.00 0.00 0.00 77 1007.3
20260503171803 44 47 2.0 5.0 0.00 0.00 0.00 77 1007.3
20260503171303 44 27 2.0 3.0 0.00 0.00 0.00 77 1007.3
20260503170803 44 180 1.0 2.0 0.00 0.00 0.00 77 1007.3
20260503150803 44 21 1.0 5.0 0.00 0.00 0.00 83 1008.4
20260503150303 44 11 3.0 6.0 0.00 0.00 0.00 83 1008.4
20260503140303 45 324 2.0 3.0 0.00 0.00 0.00 84 1008.5
20260503110803 45 31 2.0 5.0 0.00 0.00 0.00 76 1008.6
20260503110303 45 21 3.0 6.0 0.00 0.00 0.00 76 1008.6
20260503090303 45 37 3.0 6.0 0.00 0.00 0.00 75 1008.4
20260503080804 45 30 3.0 8.0 0.00 0.00 0.00 77 1007.9
20260503080304 46 21 3.0 8.0 0.00 0.00 0.00 77 1007.9
20260503072803 45 36 3.0 6.0 0.00 0.00 0.00 80 1007.8
20260503072305 45 7 3.0 5.0 0.00 0.00 0.00 80 1007.9
20260503071803 45 28 3.0 8.0 0.00 0.00 0.00 81 1007.9
20260503070803 45 347 2.0 6.0 0.00 0.00 0.00 82 1007.9
20260503070303 45 351 2.0 5.0 0.00 0.00 0.00 82 1007.6
20260503054303 45 349 3.0 7.0 0.00 0.00 0.00 85 1007.3
20260503053803 45 28 2.0 5.0 0.00 0.00 0.00 85 1007.3
20260503053303 45 356 2.0 5.0 0.00 0.00 0.00 85 1007.3
20260503052803 45 15 3.0 8.0 0.00 0.00 0.00 85 1007.3
20260503052305 45 19 3.0 6.0 0.00 0.00 0.00 85 1007.3
20260503051803 45 23 3.0 10.0 0.00 0.00 0.00 85 1006.0
20260503051303 45 347 3.0 8.0 0.00 0.00 0.00 84 1006.0
20260503050803 45 12 4.0 10.0 0.00 0.00 0.00 84 1006.0
20260503050303 45 17 2.0 3.0 0.00 0.00 0.00 85 1006.0
20260503045803 45 23 3.0 8.0 0.00 0.00 0.00 85 1006.0
20260503045305 45 25 2.0 3.0 0.00 0.00 0.00 84 1006.0
20260503044803 45 334 2.0 5.0 0.00 0.00 0.00 84 1006.0
20260503044304 45 20 3.0 6.0 0.00 0.00 0.00 84 1006.0